Port Isabel, TX

4:37 AM CDT on April 22, 2018 (GMT -0500)
Port Isabel-Cameron County

Weather History for KPIL - January, 2012

Change the Weather History Date:

Wednesday, January 25, 2012

  Actual Average (KBRO) Record (KBRO)
Temperature  
Mean Temperature 76 °F -  
Max Temperature 86 °F 70 °F 90 °F (1982)
Min Temperature 64 °F 52 °F 29 °F (1884)
Cooling Degree Days 11    
Growing Degree Days 26 (Base 50)    
Moisture  
Dew Point 65 °F    
Average Humidity 72    
Maximum Humidity 91    
Minimum Humidity 23    
Precipitation  
Precipitation 0.00 in - - ()
Sea Level Pressure  
Sea Level Pressure 29.79 in    
Wind  
Wind Speed 19 mph (SSW)    
Max Wind Speed 24 mph    
Max Gust Speed 32 mph    
Visibility 7 miles    
Events      
Averages and records for this station are not official NWS values.
T = Trace of Precipitation, MM = Missing Value Source: NWS Daily Summary

Daily Weather History Graph

Daily Weather History Graph

Search for Another Location

Airport or City:

Astronomy

Jan. 25, 2012 Rise Set
Actual Time 7:16 AM CST 6:06 PM CST
Civil Twilight 6:52 AM CST 6:31 PM CST
Nautical Twilight 6:24 AM CST 6:59 PM CST
Astronomical Twilight 5:56 AM CST 7:26 PM CST
Moon 8:35 AM CST (1/25) 8:38 PM CST (1/25)
Length of Visible Light 11h 39m
Length of Day
10h 50m
Waxing Crescent, 7% of the Moon is Illuminated
Jan 25
Waxing Crescent
Jan 30
First Quarter
Feb 7
Full
Feb 14
Last Quarter
Feb 21
New

Hourly Weather History & Observations

Time (CST) Temp. Heat Index Dew Point Humidity Pressure Visibility Wind Dir Wind Speed Gust Speed Precip Events Conditions
12:42 AM 75.2 °F - 71.6 °F 89% 29.73 in 7.0 mi SSE 24.2 mph 32.2 mph N/A   Mostly Cloudy
12:53 AM 75.0 °F - 71.1 °F 87% 29.74 in 6.0 mi SSE 20.7 mph 29.9 mph N/A   Mostly Cloudy
1:53 AM 75.0 °F - 71.1 °F 87% 29.73 in 5.0 mi SSE 21.9 mph 28.8 mph N/A   Overcast
2:53 AM 73.9 °F - 70.0 °F 87% 29.71 in 5.0 mi SSE 24.2 mph 29.9 mph N/A   Overcast
3:29 AM 75.2 °F - 69.8 °F 83% 29.71 in 6.0 mi SSE 20.7 mph 29.9 mph N/A   Haze
3:53 AM 73.9 °F - 71.1 °F 91% 29.71 in 5.0 mi SSE 20.7 mph 29.9 mph N/A   Overcast
4:53 AM 75.0 °F - 71.1 °F 87% 29.71 in 5.0 mi South 24.2 mph 29.9 mph N/A   Overcast
5:53 AM 75.0 °F - 71.1 °F 87% 29.76 in 6.0 mi South 15.0 mph 21.9 mph N/A   Overcast
6:53 AM 75.0 °F - 71.1 °F 87% 29.77 in 6.0 mi South 12.7 mph - N/A   Overcast
7:17 AM 75.2 °F - 71.6 °F 89% 29.77 in 6.0 mi South 12.7 mph - N/A   Overcast
7:53 AM 75.0 °F - 71.1 °F 87% 29.78 in 5.0 mi South 15.0 mph - N/A   Scattered Clouds
8:12 AM 75.2 °F - 71.6 °F 89% 29.79 in 5.0 mi South 12.7 mph - N/A   Mostly Cloudy
8:20 AM 75.2 °F - 71.6 °F 89% 29.80 in 5.0 mi South 15.0 mph - N/A   Scattered Clouds
8:29 AM 75.2 °F - 71.6 °F 89% 29.80 in 5.0 mi South 13.8 mph 19.6 mph N/A   Haze
8:53 AM 77.0 °F - 71.1 °F 82% 29.81 in 6.0 mi SSW 18.4 mph 21.9 mph N/A   Haze
9:07 AM 78.8 °F - 71.6 °F 78% 29.82 in 6.0 mi SSW 15.0 mph 21.9 mph N/A   Haze
9:53 AM 79.0 °F - 71.1 °F 77% 29.83 in 6.0 mi SSW 17.3 mph - N/A   Haze
10:31 AM 78.8 °F - 69.8 °F 74% 29.83 in 6.0 mi SW 19.6 mph 29.9 mph N/A   Haze
10:41 AM 80.6 °F 83.9 °F 69.8 °F 70% 29.84 in 6.0 mi SW 17.3 mph 23.0 mph N/A   Haze
10:53 AM 79.0 °F - 69.1 °F 72% 29.84 in 6.0 mi WSW 18.4 mph - N/A   Haze
11:53 AM 80.1 °F 82.1 °F 66.0 °F 62% 29.83 in 6.0 mi WNW 16.1 mph 21.9 mph N/A   Haze
1:53 PM 86.0 °F - 52.0 °F 31% 29.76 in 10.0 mi NW 18.4 mph 25.3 mph N/A   Clear
2:53 PM 86.0 °F - 48.9 °F 28% 29.74 in 10.0 mi NNW 15.0 mph 24.2 mph N/A   Clear
3:53 PM 86.0 °F - 44.1 °F 23% 29.74 in 10.0 mi NNW 20.7 mph 25.3 mph N/A   Clear
4:53 PM 82.9 °F - 42.1 °F 24% 29.77 in 10.0 mi NNW 16.1 mph 20.7 mph N/A   Clear
5:53 PM 80.1 °F - 41.0 °F 25% 29.81 in 10.0 mi NNW 15.0 mph - N/A   Clear
6:53 PM 70.0 °F - 62.1 °F 76% 29.84 in 10.0 mi NE 11.5 mph - N/A   Clear
7:53 PM 69.1 °F - 61.0 °F 75% 29.88 in 10.0 mi North 12.7 mph - N/A   Clear
10:53 PM 66.0 °F - 52.0 °F 60% 29.97 in 10.0 mi North 11.5 mph - N/A   Clear
11:53 PM 64.9 °F - 52.0 °F 63% 29.99 in 10.0 mi NNW 11.5 mph - N/A   Clear